Find Starlink 3720

NORAD ID: 52136 Int'l Des: 2022-029 Owner: SPXS Country: US Constellation: starlink operational
LEOCIRCULAR

当前视图

正在加载3D地球...

关于 Starlink 3720

正在加载描述...

即将过境

Passes for default location (London). Set your location on the main map for personalized predictions.

高度历史

Loading altitude history...

两行轨道根数

1 52136U 22029BA 26159.81042234 .00000755 00000-0 65540-4 0 9990
2 52136 53.1673 20.0162 0001592 89.8010 270.3164 15.08836826234692
Epoch: Jun 8, 2026 • Age: 5 hours

当前状态

高度 539.6 km
速度 7.60 km/s
星下点 16.74°N, 85.18°W
发射日期 Mar 19, 2022
运行时间 4.2 years
类型 internet

技术详情

分类 Payload
质量 297.00 kg
干质量 275.00 kg
总质量 297.00 kg
长度 0.20 m
直径 2.80 m
跨度 9.00 m
形状 Box + pan
制造商 SPXS
平台类型 Starlink
阶段状态 In Orbit
所有者/国家 SPXS/US

Most Searched